Time,TemperatureF,DewpointF,PressureIn,WindDirection,WindDirectionDegrees,WindSpeedMPH,WindSpeedGustMPH,Humidity,HourlyPrecipIn,Conditions,Clouds,dailyrainin,SolarRadiationWatts/m^2,SoftwareType,DateUTC
2013-01-28 18:00:00,80.7,71.2,29.71,NNW,346,13.0,29.0,73,0.00,CLR,,0.00,12.4,WeatherDisplay:10.37,2013-01-28 08:00:00,
2013-01-28 18:05:00,79.4,70.8,29.71,NNW,334,12.0,20.0,75,0.00,CLR,,0.00,8.8,WeatherDisplay:10.37,2013-01-28 08:05:00,
2013-01-28 18:10:00,79.3,70.7,29.71,NW,323,7.0,17.0,75,0.00,CLR,,0.00,7.3,WeatherDisplay:10.37,2013-01-28 08:10:00,
2013-01-28 18:15:00,79.3,70.7,29.71,NW,323,7.0,12.0,75,0.00,CLR,,0.00,6.7,WeatherDisplay:10.37,2013-01-28 08:15:00,
2013-01-28 18:20:00,79.2,70.9,29.72,NNW,337,6.0,9.0,76,0.00,CLR,,0.00,9.8,WeatherDisplay:10.37,2013-01-28 08:20:00,
2013-01-28 18:25:00,79.3,71.1,29.73,NNW,329,6.0,8.0,76,0.00,CLR,,0.00,29.0,WeatherDisplay:10.37,2013-01-28 08:25:00,
2013-01-28 18:30:00,79.5,71.7,29.72,NNW,334,5.0,8.0,77,0.00,CLR,,0.00,22.8,WeatherDisplay:10.37,2013-01-28 08:30:00,
2013-01-28 18:35:00,79.7,71.8,29.72,NNW,348,7.0,10.0,77,0.00,CLR,,0.00,18.9,WeatherDisplay:10.37,2013-01-28 08:35:00,
2013-01-28 18:40:00,79.9,72.0,29.72,NNW,340,3.0,8.0,77,0.00,CLR,,0.00,12.1,WeatherDisplay:10.37,2013-01-28 08:40:00,
2013-01-28 18:45:00,79.7,72.2,29.71,NNE,17,3.0,5.0,78,0.00,CLR,,0.00,11.5,WeatherDisplay:10.37,2013-01-28 08:45:00,
2013-01-28 18:50:00,79.5,72.4,29.71,NE,38,5.0,6.0,79,0.00,CLR,,0.00,10.9,WeatherDisplay:10.37,2013-01-28 08:50:00,
2013-01-28 18:55:00,79.3,72.6,29.71,NE,48,3.0,6.0,80,0.00,CLR,,0.00,7.4,WeatherDisplay:10.37,2013-01-28 08:55:00,
2013-01-28 19:00:00,79.3,72.6,29.71,East,87,3.0,7.0,80,0.00,CLR,,0.00,0.0,WeatherDisplay:10.37,2013-01-28 09:00:00,
2013-01-28 19:05:00,79.3,72.6,29.71,SE,124,2.0,6.0,80,0.00,CLR,,0.00,0.0,WeatherDisplay:10.37,2013-01-28 09:05:00,
2013-01-28 19:10:00,79.5,72.8,29.73,SSE,160,2.0,5.0,80,0.00,CLR,,0.00,0.0,WeatherDisplay:10.37,2013-01-28 09:10:00,
2013-01-28 19:15:00,79.3,72.6,29.73,WSW,250,0.0,4.0,80,0.00,CLR,,0.00,0.0,WeatherDisplay:10.37,2013-01-28 09:15:00,
2013-01-28 19:20:00,79.3,73.0,29.74,SW,227,1.0,3.0,81,0.00,CLR,,0.00,0.0,WeatherDisplay:10.37,2013-01-28 09:20:00,
2013-01-28 19:25:00,79.2,72.8,29.74,SE,134,2.0,6.0,81,0.00,CLR,,0.00,0.0,WeatherDisplay:10.37,2013-01-28 09:25:00,
2013-01-28 19:30:00,79.0,72.6,29.75,SE,126,0.0,3.0,81,0.00,CLR,,0.00,0.0,WeatherDisplay:10.37,2013-01-28 09:30:00,
2013-01-28 19:35:00,79.2,72.8,29.74,SE,133,0.0,2.0,81,0.00,CLR,,0.00,0.0,WeatherDisplay:10.37,2013-01-28 09:35:00,
2013-01-28 19:40:00,79.2,73.2,29.74,NW,308,2.0,4.0,82,0.00,CLR,,0.00,0.0,WeatherDisplay:10.37,2013-01-28 09:40:00,
2013-01-28 19:45:00,78.8,72.5,29.75,NW,308,3.0,6.0,81,0.00,CLR,,0.00,0.0,WeatherDisplay:10.37,2013-01-28 09:45:00,
2013-01-28 19:50:00,78.6,72.7,29.75,NW,317,5.0,7.0,82,0.00,CLR,,0.00,0.0,WeatherDisplay:10.37,2013-01-28 09:50:00,
2013-01-28 19:55:00,78.3,72.7,29.77,WNW,299,5.0,9.0,83,0.00,CLR,,0.00,0.0,WeatherDisplay:10.37,2013-01-28 09:55:00,
2013-01-28 20:05:00,78.1,72.8,29.77,SW,234,3.0,8.0,84,0.00,CLR,,0.00,0.0,WeatherDisplay:10.37,2013-01-28 10:05:00,
2013-01-28 20:10:00,78.1,72.8,29.78,WSW,247,13.0,21.0,84,0.00,CLR,,0.00,0.0,WeatherDisplay:10.37,2013-01-28 10:10:00,
2013-01-28 20:15:00,78.1,70.3,29.78,WSW,247,8.0,21.0,77,0.00,CLR,,0.00,0.0,WeatherDisplay:10.37,2013-01-28 10:15:00,
2013-01-28 20:20:00,77.3,70.3,29.78,WSW,252,8.0,15.0,79,0.00,CLR,,0.00,0.0,WeatherDisplay:10.37,2013-01-28 10:20:00,
2013-01-28 20:25:00,75.6,70.7,29.78,SW,225,8.0,13.0,85,0.00,CLR,,0.00,0.0,WeatherDisplay:10.37,2013-01-28 10:25:00,
2013-01-28 20:30:00,74.8,71.4,29.78,SSW,197,7.0,13.0,89,0.00,CLR,,0.00,0.0,WeatherDisplay:10.37,2013-01-28 10:30:00,
2013-01-28 20:35:00,74.8,71.7,29.78,SSW,202,7.0,14.0,90,0.00,CLR,,0.00,0.0,WeatherDisplay:10.37,2013-01-28 10:35:00,
2013-01-28 20:40:00,74.7,71.9,29.79,SSW,213,8.0,14.0,91,0.00,CLR,,0.00,0.0,WeatherDisplay:10.37,2013-01-28 10:40:00,
2013-01-28 20:45:00,74.1,71.3,29.79,SW,219,6.0,13.0,91,0.00,RA,,0.01,0.0,WeatherDisplay:10.37,2013-01-28 10:45:00,
2013-01-28 20:50:00,73.7,71.2,29.79,WSW,240,3.0,8.0,92,0.00,RA,,0.01,0.0,WeatherDisplay:10.37,2013-01-28 10:50:00,
2013-01-28 20:55:00,73.4,71.6,29.80,WSW,247,3.0,9.0,94,0.00,CLR,,0.01,0.0,WeatherDisplay:10.37,2013-01-28 10:55:00,
2013-01-28 21:00:00,73.6,71.7,29.81,SSW,211,5.0,8.0,94,0.00,CLR,,0.01,0.0,WeatherDisplay:10.37,2013-01-28 11:00:00,
2013-01-28 21:05:00,73.4,71.9,29.82,SW,216,5.0,8.0,95,0.00,CLR,,0.01,0.0,WeatherDisplay:10.37,2013-01-28 11:05:00,
2013-01-28 21:10:00,73.4,71.9,29.82,WSW,254,5.0,9.0,95,0.01,RA,,0.02,0.0,WeatherDisplay:10.37,2013-01-28 11:10:00,
2013-01-28 21:15:00,73.2,71.4,29.82,West,278,5.0,8.0,94,0.00,RA,,0.02,0.0,WeatherDisplay:10.37,2013-01-28 11:15:00,
2013-01-28 21:20:00,73.2,71.4,29.81,SW,214,2.0,8.0,94,0.00,,,0.02,0.0,WeatherDisplay:10.37,2013-01-28 11:20:00,
2013-01-28 21:25:00,73.4,71.9,29.82,South,185,1.0,3.0,95,0.00,CLR,,0.02,0.0,WeatherDisplay:10.37,2013-01-28 11:25:00,
2013-01-28 21:30:00,73.6,72.4,29.82,NNE,30,3.0,6.0,96,0.00,CLR,,0.02,0.0,WeatherDisplay:10.37,2013-01-28 11:30:00,
2013-01-28 21:35:00,73.3,72.1,29.82,NNW,346,3.0,6.0,96,0.00,CLR,,0.02,0.0,WeatherDisplay:10.37,2013-01-28 11:35:00,
2013-01-28 21:40:00,73.2,71.7,29.81,NNW,339,0.0,6.0,95,0.00,CLR,,0.02,0.0,WeatherDisplay:10.37,2013-01-28 11:40:00,
2013-01-28 21:45:00,73.2,71.7,29.81,NW,316,1.0,2.0,95,0.00,CLR,,0.02,0.0,WeatherDisplay:10.37,2013-01-28 11:45:00,
2013-01-28 21:50:00,73.2,72.0,29.82,North,350,2.0,4.0,96,0.00,CLR,,0.02,0.0,WeatherDisplay:10.37,2013-01-28 11:50:00,
2013-01-28 21:55:00,73.2,72.0,29.82,North,11,2.0,5.0,96,0.00,CLR,,0.02,0.0,WeatherDisplay:10.37,2013-01-28 11:55:00,
2013-01-28 22:00:00,73.0,72.1,29.82,NNW,336,2.0,5.0,97,0.00,CLR,,0.02,0.0,WeatherDisplay:10.37,2013-01-28 12:00:00,
2013-01-28 22:05:00,72.9,71.7,29.81,NNW,328,0.0,3.0,96,0.00,CLR,,0.02,0.0,WeatherDisplay:10.37,2013-01-28 12:05:00,
2013-01-28 22:10:00,73.0,71.8,29.81,NW,318,2.0,4.0,96,0.00,CLR,,0.02,0.0,WeatherDisplay:10.37,2013-01-28 12:10:00,
2013-01-28 22:15:00,72.9,72.0,29.81,WNW,303,3.0,6.0,97,0.00,CLR,,0.02,0.0,WeatherDisplay:10.37,2013-01-28 12:15:00,
2013-01-28 22:20:00,72.9,72.0,29.81,NW,308,3.0,6.0,97,0.00,CLR,,0.02,0.0,WeatherDisplay:10.37,2013-01-28 12:20:00,
2013-01-28 22:25:00,72.9,71.7,29.81,NW,309,3.0,6.0,96,0.00,CLR,,0.02,0.0,WeatherDisplay:10.37,2013-01-28 12:25:00,
2013-01-28 22:30:00,72.9,71.7,29.81,WNW,300,2.0,6.0,96,0.00,CLR,,0.02,0.0,WeatherDisplay:10.37,2013-01-28 12:30:00,
2013-01-28 22:35:00,72.7,71.5,29.81,WNW,301,3.0,6.0,96,0.00,CLR,,0.02,0.0,WeatherDisplay:10.37,2013-01-28 12:35:00,
2013-01-28 22:40:00,72.7,71.5,29.81,NW,313,2.0,5.0,96,0.00,CLR,,0.02,0.0,WeatherDisplay:10.37,2013-01-28 12:40:00,
2013-01-28 22:45:00,72.7,71.5,29.80,NW,315,2.0,4.0,96,0.00,CLR,,0.02,0.0,WeatherDisplay:10.37,2013-01-28 12:45:00,
2013-01-28 22:50:00,72.7,71.5,29.80,NW,315,2.0,4.0,96,0.00,CLR,,0.02,0.0,WeatherDisplay:10.37,2013-01-28 12:50:00,
2013-01-28 22:55:00,72.5,71.3,29.81,NW,315,2.0,4.0,96,0.00,CLR,,0.02,0.0,WeatherDisplay:10.37,2013-01-28 12:55:00,
2013-01-28 23:00:00,72.5,71.3,29.81,NW,317,1.0,4.0,96,0.00,CLR,,0.02,0.0,WeatherDisplay:10.37,2013-01-28 13:00:00,
2013-01-28 23:05:00,72.5,71.3,29.81,NW,316,1.0,2.0,96,0.00,CLR,,0.02,0.0,WeatherDisplay:10.37,2013-01-28 13:05:00,
2013-01-28 23:10:00,72.3,71.1,29.80,WNW,292,1.0,4.0,96,0.00,CLR,,0.02,0.0,WeatherDisplay:10.37,2013-01-28 13:10:00,
2013-01-28 23:15:00,72.3,71.1,29.80,WNW,289,0.0,2.0,96,0.00,CLR,,0.02,0.0,WeatherDisplay:10.37,2013-01-28 13:15:00,
2013-01-28 23:20:00,72.5,71.3,29.79,South,180,1.0,3.0,96,0.00,CLR,,0.02,0.0,WeatherDisplay:10.37,2013-01-28 13:20:00,
2013-01-28 23:25:00,72.7,71.5,29.79,SSE,154,1.0,3.0,96,0.00,CLR,,0.02,0.0,WeatherDisplay:10.37,2013-01-28 13:25:00,
2013-01-28 23:30:00,72.7,71.5,29.79,SSE,161,1.0,2.0,96,0.00,CLR,,0.02,0.0,WeatherDisplay:10.37,2013-01-28 13:30:00,
2013-01-28 23:35:00,72.9,71.7,29.79,SE,138,3.0,4.0,96,0.00,CLR,,0.02,0.0,WeatherDisplay:10.37,2013-01-28 13:35:00,
2013-01-28 23:40:00,73.0,71.8,29.79,SE,144,3.0,6.0,96,0.00,CLR,,0.02,0.0,WeatherDisplay:10.37,2013-01-28 13:40:00,
2013-01-28 23:45:00,72.9,71.7,29.78,SE,139,3.0,5.0,96,0.00,CLR,,0.02,0.0,WeatherDisplay:10.37,2013-01-28 13:45:00,
2013-01-28 23:50:00,73.0,71.8,29.78,SE,135,3.0,5.0,96,0.00,CLR,,0.02,0.0,WeatherDisplay:10.37,2013-01-28 13:50:00,
2013-01-28 23:55:00,73.0,72.1,29.78,SSE,156,1.0,5.0,97,0.00,CLR,,0.02,0.0,WeatherDisplay:10.37,2013-01-28 13:55:00,